Location: Grambois
(43.7619°N, 5.5873°E)
Time: 16:51:00
(UTC+00:00)

Cosmos 2322 - Pass Details

Date: 07 June 2020
Orbit: 840 x 855 km, 71.0° (Epoch: 08 July)

Event Time Altitude Azimuth Distance (km) Brightness Sun altitude
Exits shadow 02:43:40 10° 196° (SSW) 2,452 5.6 -10.8°
Maximum altitude 02:49:17 74° 112° (ESE) 888 3.9 -10.1°
Drops below altitude 10° 02:55:00 10° 28° (NNE) 2,494 7.5 -9.4°
Sets 02:57:28 0° 27° (NNE) 3,435 8.5 -9.1°
